RH
51 44 39 37 34 30 27 27 29 34 34 38 41 39 38 39 38 39 41 45 48 49 51 55 60 64 66 70 60 53 50 53 52 51 51 60 64 65 68 72 75 77 78
46 41 40 37 35 32 30 28 27 27 28 31 33 34 34 34 34 34 35 37 38 40 42 47 54 56 55 50 47 44 43 42 50 56 64 64 62 63 66 67 70 73 73
45 41 39 38 37 35 33 31 29 28 28 27 26 26 27 28 28 29 28 27 28 32 37 38 41 42 39 35 31 32 39 43 49 55 63 64 60 57 58 60 65 70 68
44 43 43 40 38 37 35 32 30 28 27 26 26 25 25 25 24 24 23 22 22 22 23 23 25 27 28 29 31 34 42 46 46 44 46 54 61 60 57 59 62 65 77
47 44 43 42 40 38 36 34 32 30 28 27 24 23 23 23 22 21 21 21 22 22 22 23 24 27 30 31 34 40 41 39 36 39 45 47 51 50 58 52 59 64 65
49 46 44 43 42 41 38 36 33 30 28 27 27 28 27 26 23 22 21 19 18 18 18 19 21 24 27 30 32 32 32 44 51 49 49 50 54 52 52 52 50 52 52
49 47 46 44 43 42 38 35 33 31 30 30 30 30 28 27 26 23 21 20 20 21 22 21 23 25 29 33 34 35 38 40 42 43 39 38 36 46 44 45 48 48 47
50 49 46 45 43 42 41 39 36 34 31 28 27 28 28 27 25 24 25 27 27 26 25 25 26 28 31 35 38 39 39 37 34 34 36 37 36 37 41 47 51 53 52
52 52 48 45 42 41 40 39 39 36 33 31 28 27 27 27 27 28 30 31 30 30 29 29 30 30 29 30 30 31 29 30 32 36 38 38 36 37 40 42 48 51 54
55 54 49 47 43 40 40 39 36 34 33 31 29 29 29 30 31 32 33 31 30 28 27 27 27 27 27 27 26 24 24 27 33 36 36 37 38 38 39 42 46 53 58
54 52 51 47 43 41 40 40 38 35 34 34 34 35 35 35 35 33 31 30 29 28 28 28 27 26 24 24 24 24 26 29 32 33 34 36 38 39 43 47 51 54 61
58 54 53 53 44 42 41 40 40 39 38 39 40 39 38 36 34 33 32 31 31 31 31 30 29 28 26 25 24 26 30 34 35 36 38 41 43 43 47 51 55 59 67
62 57 55 54 49 45 43 44 43 43 44 44 43 42 41 39 36 34 35 35 36 36 36 36 34 32 31 28 29 34 36 37 37 39 42 44 46 49 51 54 57 60 65
64 61 58 57 53 51 50 48 48 49 49 49 48 44 41 38 37 37 37 37 38 40 41 41 41 40 39 39 39 42 43 43 43 45 49 50 52 51 54 54 60 63 64
61 62 61 64 63 60 55 53 53 50 48 48 49 45 42 41 41 41 42 43 43 45 45 46 46 44 44 45 46 48 47 46 47 48 48 50 52 54 57 49 45 46 48
56 58 61 66 66 65 61 57 53 51 51 49 48 46 45 45 47 47 46 47 49 51 51 50 49 49 49 50 50 50 48 45 43 38 35 41 45 48 42 34 31 32 38
56 59 66 65 64 61 60 57 55 55 54 53 51 49 50 52 51 51 52 53 54 54 54 54 54 53 52 49 40 31 25 23 20 17 17 17 16 15 16 14 13 13 13
52 55 68 72 69 63 63 61 59 57 57 56 56 57 57 54 54 55 56 56 57 58 57 54 53 39 27 23 21 20 18 17 16 16 16 16 16 16 15 14 14 14 15
56 63 72 71 69 65 63 62 61 61 61 61 61 61 62 61 60 59 59 60 59 57 55 42 30 25 24 23 21 21 20 20 19 19 19 19 20 20 19 19 18 18 19
52 66 72 74 71 68 66 66 66 64 62 60 61 63 62 62 59 58 57 58 56 45 33 29 26 26 25 24 24 24 24 24 24 24 24 24 24 24 24 23 22 21 21
68 75 80 79 75 74 72 68 65 64 64 63 64 65 64 61 60 59 57 42 32 30 27 26 28 28 29 28 27 28 30 30 30 29 29 28 27 27 27 27 25 25 24
77 81 83 84 83 80 76 71 68 67 67 65 66 65 62 62 60 51 33 30 28 26 27 28 30 31 31 32 32 33 35 36 36 35 34 33 32 32 31 30 28 27 26
80 81 84 87 85 82 77 75 73 72 71 69 67 65 64 61 52 34 32 30 28 28 28 29 31 33 35 37 39 41 43 44 44 42 41 39 38 37 35 33 30 29 29
87 89 87 88 90 84 79 75 75 74 73 71 69 66 62 56 41 35 35 33 31 30 30 31 32 34 36 39 43 44 46 47 49 49 47 44 43 40 37 36 35 34 34
92 89 88 88 92 91 85 79 72 72 73 73 71 68 62 50 40 38 36 35 35 34 33 33 33 35 37 40 43 44 45 47 50 52 52 51 48 46 43 42 41 39 39
87 89 92 91 89 92 92 83 75 72 73 74 74 71 62 49 43 42 40 40 40 38 37 36 37 37 41 43 43 45 48 50 53 55 56 56 54 52 50 49 47 45 44